EW9454 Weather Reports


Display with metric or nautical units.
time (UTC)temp
F
wind
direction
speed
MPH
gust
MPH
rain 1hr
in
rain 24hr
in
rain mn
in
humidity
%
barometer
mb
20260505120038 58 176 2.0 6.0 0.00 0.00 0.00 70 1005.6
20260505115515 58 226 2.0 5.0 0.00 0.00 0.00 68 1005.5
20260505115012 59 250 1.0 9.0 0.00 0.00 0.00 67 1005.6
20260505114538 59 252 2.0 10.0 0.00 0.00 0.00 67 1005.7
20260505114016 59 196 4.0 12.0 0.00 0.00 0.00 66 1005.5
20260505113513 59 229 6.0 12.0 0.00 0.00 0.00 66 1005.3
20260505113033 59 217 4.0 15.0 0.00 0.00 0.00 67 1005.3
20260505112516 59 223 2.0 12.0 0.00 0.00 0.00 67 1005.1
20260505112012 59 186 5.0 12.0 0.00 0.00 0.00 66 1005.0
20260505111542 59 229 4.0 10.0 0.00 0.00 0.00 66 1005.1
20260505111013 59 224 3.0 12.0 0.00 0.00 0.00 66 1005.1
20260505110514 59 243 5.0 12.0 0.00 0.00 0.00 66 1005.1
20260505102011 58 139 5.0 13.0 0.00 0.00 0.00 67 1004.9
20260505101546 58 153 5.0 10.0 0.00 0.00 0.00 68 1004.9
20260505101015 57 254 4.0 10.0 0.00 0.00 0.00 68 1004.8
20260505100511 57 187 3.0 10.0 0.00 0.00 0.00 69 1004.8
20260505100039 57 229 3.0 7.0 0.00 0.00 0.00 70 1005.0
20260505095512 57 133 0.0 7.0 0.00 0.00 0.00 71 1005.1
20260505095012 58 150 0.0 7.0 0.00 0.00 0.00 70 1005.3
20260505094538 58 202 1.0 6.0 0.00 0.00 0.00 67 1005.2
20260505094013 58 184 0.0 5.0 0.00 0.00 0.00 66 1005.2
20260505093512 58 34 2.0 5.0 0.00 0.00 0.00 65 1005.3
20260505093041 58 217 2.0 9.0 0.00 0.00 0.00 65 1005.2
20260505092516 58 182 1.0 9.0 0.00 0.00 0.00 65 1005.3
20260505092013 58 217 2.0 9.0 0.00 0.00 0.00 65 1005.2
20260505091540 58 202 3.0 14.0 0.00 0.00 0.00 65 1005.1
20260505091014 58 232 4.0 14.0 0.00 0.00 0.00 66 1005.1
20260505090512 58 253 1.0 8.0 0.00 0.00 0.00 66 1005.1
20260505090054 58 199 3.0 9.0 0.00 0.00 0.00 66 1005.3
20260505085514 58 212 3.0 9.0 0.00 0.00 0.00 65 1005.1
20260505085017 58 150 3.0 8.0 0.00 0.00 0.00 65 1004.9
20260505084548 58 96 3.0 9.0 0.00 0.00 0.00 65 1005.0
20260505084012 58 186 2.0 9.0 0.00 0.00 0.00 64 1005.4
20260505083513 59 233 3.0 11.0 0.00 0.00 0.00 64 1005.4
20260505083038 59 262 5.0 11.0 0.00 0.00 0.00 64 1005.3
20260505082511 59 225 5.0 11.0 0.00 0.00 0.00 63 1005.4
20260505082012 59 215 6.0 11.0 0.00 0.00 0.00 63 1005.4
20260505081543 59 153 6.0 11.0 0.00 0.00 0.00 63 1005.4
20260505081012 59 250 5.0 14.0 0.00 0.00 0.00 63 1005.4
20260505080513 59 221 5.0 14.0 0.00 0.00 0.00 63 1005.4
20260505080042 59 294 4.0 12.0 0.00 0.00 0.00 63 1005.2
20260505075514 59 192 5.0 14.0 0.00 0.01 0.00 62 1005.4
20260505075013 59 248 4.0 14.0 0.00 0.01 0.00 63 1005.1
20260505074539 59 243 7.0 14.0 0.00 0.01 0.00 62 1005.0
20260505074015 59 227 4.0 14.0 0.00 0.01 0.00 62 1005.0
20260505073513 59 171 5.0 12.0 0.00 0.01 0.00 62 1004.9
20260505073041 59 231 6.0 15.0 0.00 0.01 0.00 62 1005.0
20260505072516 59 246 8.0 15.0 0.00 0.01 0.00 62 1005.0
20260505072012 59 198 5.0 15.0 0.00 0.01 0.00 62 1005.0
20260505071545 59 232 5.0 12.0 0.00 0.01 0.00 62 1005.1
20260505071014 59 254 3.0 17.0 0.00 0.01 0.00 62 1005.0
20260505070513 59 141 5.0 17.0 0.00 0.01 0.00 62 1005.1
20260505070044 59 150 4.0 15.0 0.00 0.01 0.00 62 1005.1
20260505065512 59 117 5.0 16.0 0.00 0.01 0.00 63 1005.2
20260505065014 59 179 3.0 16.0 0.00 0.01 0.00 63 1005.0
20260505064541 59 183 2.0 12.0 0.00 0.01 0.00 63 1005.0
20260505064015 58 112 5.0 11.0 0.00 0.01 0.00 63 1005.1
20260505063515 58 182 2.0 11.0 0.00 0.01 0.00 64 1005.2
20260505063047 58 198 2.0 12.0 0.00 0.01 0.00 64 1005.1
20260505062519 58 312 5.0 12.0 0.00 0.01 0.00 65 1005.2
20260505062010 57 178 2.0 9.0 0.00 0.01 0.00 66 1005.1
20260505061548 57 144 3.0 8.0 0.00 0.01 0.00 67 1005.1
20260505061018 56 211 3.0 9.0 0.00 0.01 0.00 68 1005.0
20260505060514 56 270 2.0 9.0 0.00 0.01 0.00 70 1005.1
20260505060050 55 140 2.0 10.0 0.00 0.01 0.00 71 1005.1
20260505055515 54 255 3.0 8.0 0.00 0.01 0.00 73 1005.0
20260505055015 53 250 2.0 5.0 0.00 0.01 0.00 75 1005.0
20260505054539 52 253 3.0 6.0 0.00 0.01 0.00 76 1005.1
20260505054017 52 269 3.0 5.0 0.00 0.01 0.00 77 1005.0
20260505053512 52 251 4.0 6.0 0.00 0.01 0.00 77 1005.1
20260505053059 52 236 0.0 8.0 0.00 0.01 0.00 77 1005.1
20260505052517 52 221 4.0 8.0 0.00 0.01 0.00 76 1005.1
20260505052017 52 223 2.0 9.0 0.00 0.01 0.00 77 1005.2
20260505051549 52 226 2.0 9.0 0.00 0.01 0.00 77 1005.2
20260505051014 52 188 2.0 7.0 0.00 0.01 0.00 77 1005.2
20260505050519 51 167 1.0 7.0 0.00 0.01 0.00 78 1005.2
20260505041529 50 175 0.0 2.0 0.00 0.01 0.00 81 1005.2
20260505041007 51 175 0.0 3.0 0.00 0.01 0.00 80 1005.2
20260505040509 51 175 0.0 3.0 0.00 0.01 0.00 80 1005.2
20260505040029 51 174 0.0 3.0 0.00 0.01 0.00 78 1005.1
20260505035513 52 174 1.0 2.0 0.00 0.01 0.01 78 1005.1
20260505035010 52 234 0.0 5.0 0.00 0.01 0.01 79 1005.1
20260505034530 52 234 0.0 5.0 0.00 0.01 0.01 78 1005.2
20260505034008 52 198 1.0 5.0 0.00 0.01 0.01 76 1005.1
20260505033507 53 188 0.0 3.0 0.00 0.01 0.01 76 1005.2
20260505033044 53 184 0.0 6.0 0.00 0.01 0.01 76 1005.2
20260505032510 52 209 3.0 6.0 0.00 0.01 0.01 76 1005.3
20260505032010 52 214 2.0 5.0 0.00 0.01 0.01 77 1005.2
20260505031530 52 190 0.0 0.0 0.00 0.01 0.01 76 1005.3
20260505031010 52 190 0.0 0.0 0.00 0.01 0.01 76 1005.3
20260505030509 52 190 0.0 0.0 0.00 0.01 0.01 76 1005.2
20260505030030 53 190 0.0 0.0 0.00 0.01 0.01 76 1005.3
20260505025508 53 190 0.0 0.0 0.00 0.01 0.01 75 1005.4
20260505025010 53 190 0.0 0.0 0.00 0.01 0.01 75 1005.4
20260505024531 54 190 0.0 0.0 0.00 0.01 0.01 74 1005.5
20260505024009 54 190 0.0 0.0 0.00 0.01 0.01 73 1005.6
20260505023509 54 196 0.0 2.0 0.00 0.01 0.01 72 1005.4
20260505023028 54 196 0.0 2.0 0.00 0.01 0.01 72 1005.7
20260505022513 55 193 0.0 2.0 0.00 0.01 0.01 72 1005.7
20260505022009 54 193 1.0 4.0 0.00 0.01 0.01 73 1005.8
20260505021530 55 191 1.0 4.0 0.00 0.01 0.01 72 1005.8
20260505021009 55 232 1.0 3.0 0.00 0.01 0.01 72 1005.9
20260505020510 55 232 1.0 3.0 0.00 0.01 0.01 71 1005.9
20260505020030 55 230 1.0 3.0 0.00 0.01 0.01 71 1005.8
20260505015511 56 233 0.0 2.0 0.00 0.01 0.01 71 1005.8
20260505015011 56 233 0.0 2.0 0.00 0.01 0.01 70 1005.7
20260505014531 57 233 0.0 2.0 0.00 0.01 0.01 69 1005.6
20260505014012 57 237 0.0 2.0 0.00 0.01 0.01 67 1005.7
20260505013508 57 237 0.0 4.0 0.00 0.01 0.01 67 1005.7
20260505013031 57 192 0.0 2.0 0.00 0.01 0.01 67 1005.5
20260505012507 57 192 0.0 2.0 0.00 0.01 0.01 67 1005.6
20260505012009 57 190 0.0 2.0 0.00 0.01 0.01 66 1005.6
20260505011531 57 190 0.0 2.0 0.00 0.01 0.01 66 1005.6
20260505011010 57 190 0.0 2.0 0.00 0.01 0.01 66 1005.6
20260505010509 57 190 0.0 2.0 0.00 0.01 0.01 66 1005.5
20260505010031 57 190 0.0 2.0 0.00 0.01 0.01 66 1005.5
20260505005510 57 190 0.0 2.0 0.00 0.01 0.01 66 1005.4
20260505005011 57 190 0.0 2.0 0.00 0.01 0.01 65 1005.3
20260505004543 57 192 0.0 2.0 0.00 0.01 0.01 67 1005.3
20260505004010 57 192 1.0 3.0 0.00 0.01 0.01 66 1005.3
20260505003507 57 190 1.0 3.0 0.00 0.01 0.01 67 1005.0
20260505003031 58 193 0.0 2.0 0.00 0.01 0.01 65 1005.0
20260505002511 59 193 0.0 5.0 0.00 0.01 0.01 64 1005.2
20260505002012 60 193 2.0 6.0 0.00 0.01 0.01 63 1005.2
20260505001532 60 213 4.0 7.0 0.00 0.01 0.01 61 1005.1
20260505001010 60 215 3.0 7.0 0.00 0.01 0.01 61 1005.1
20260505000509 61 229 4.0 6.0 0.00 0.01 0.01 59 1005.0
20260505000031 63 207 2.0 7.0 0.00 0.01 0.01 56 1005.0
20260504235509 63 213 4.0 9.0 0.00 0.01 0.01 53 1004.9
20260504235011 64 227 5.0 9.0 0.00 0.01 0.01 53 1004.9
20260504234539 64 230 3.0 9.0 0.00 0.01 0.01 53 1004.8
20260504234009 64 237 3.0 7.0 0.00 0.01 0.01 52 1004.8
20260504233510 64 246 4.0 7.0 0.00 0.01 0.01 52 1004.8
20260504233031 65 223 3.0 8.0 0.00 0.01 0.01 52 1004.6
20260504232511 65 233 4.0 8.0 0.00 0.01 0.01 52 1004.5
20260504232011 65 232 4.0 8.0 0.00 0.01 0.01 52 1004.3
20260504231538 65 242 4.0 8.0 0.00 0.01 0.01 52 1004.6
20260504231011 66 226 4.0 10.0 0.00 0.01 0.01 50 1004.4
20260504230511 66 240 6.0 12.0 0.00 0.01 0.01 51 1004.4
20260504230035 66 229 5.0 12.0 0.00 0.01 0.01 50 1004.2
20260504225518 66 236 7.0 10.0 0.00 0.01 0.01 49 1004.4
20260504225011 66 258 4.0 10.0 0.00 0.01 0.01 50 1004.5
20260504224529 66 222 4.0 9.0 0.00 0.01 0.01 51 1004.3
20260504224011 67 264 5.0 10.0 0.00 0.01 0.01 54 1004.3
20260504223510 66 238 5.0 9.0 0.00 0.01 0.01 50 1004.2
20260504223029 67 250 3.0 9.0 0.00 0.01 0.01 51 1004.3
20260504222505 66 263 4.0 9.0 0.00 0.01 0.01 52 1004.2
20260504222011 66 268 5.0 9.0 0.00 0.01 0.01 53 1004.2
20260504221528 65 242 5.0 8.0 0.00 0.01 0.01 53 1004.3
20260504221010 65 263 3.0 6.0 0.00 0.01 0.01 54 1004.2
20260504220510 66 236 4.0 6.0 0.00 0.01 0.01 53 1004.1
20260504220028 66 244 3.0 8.0 0.00 0.01 0.01 52 1004.0
20260504215513 67 254 3.0 9.0 0.00 0.01 0.01 51 1004.2
20260504215012 68 236 5.0 10.0 0.00 0.01 0.01 50 1004.3
20260504214536 67 263 7.0 12.0 0.00 0.01 0.01 51 1004.3
20260504214014 65 224 5.0 12.0 0.00 0.01 0.01 52 1004.3
20260504213516 65 257 5.0 14.0 0.00 0.01 0.01 53 1004.2
20260504213031 65 252 10.0 14.0 0.00 0.01 0.01 52 1003.9
20260504212512 66 271 3.0 7.0 0.00 0.01 0.01 54 1003.8
20260504212008 66 184 0.0 13.0 0.00 0.01 0.01 57 1003.7
20260504211529 66 236 8.0 13.0 0.00 0.01 0.01 51 1003.8
20260504211009 67 232 4.0 13.0 0.00 0.01 0.01 51 1004.1
20260504210515 68 249 8.0 13.0 0.00 0.01 0.01 49 1004.0
20260504210031 68 268 6.0 12.0 0.00 0.01 0.01 48 1004.0
20260504205511 69 254 4.0 12.0 0.00 0.01 0.01 49 1004.0
20260504205012 69 267 7.0 12.0 0.00 0.01 0.01 49 1004.2
20260504204604 69 252 5.0 10.0 0.00 0.01 0.01 49 1004.1
20260504204008 70 267 5.0 9.0 0.00 0.01 0.01 47 1004.0
20260504203509 70 244 3.0 7.0 0.00 0.01 0.01 46 1004.0
20260504203031 70 248 2.0 6.0 0.00 0.01 0.01 48 1003.9
20260504202512 69 227 3.0 5.0 0.00 0.01 0.01 49 1003.9
20260504202010 68 240 1.0 8.0 0.00 0.01 0.01 56 1004.0
20260504201530 67 257 3.0 8.0 0.00 0.01 0.01 55 1004.0
20260504201011 66 234 2.0 8.0 0.00 0.01 0.01 53 1004.3
20260504200512 66 162 0.0 6.0 0.00 0.01 0.01 54 1004.3
20260504200035 67 223 4.0 7.0 0.00 0.01 0.01 53 1004.3
20260504195511 67 236 4.0 7.0 0.00 0.01 0.01 52 1004.5
20260504195011 68 234 4.0 7.0 0.00 0.01 0.01 50 1004.6
20260504194531 67 223 3.0 6.0 0.00 0.01 0.01 52 1004.5
20260504194011 67 201 2.0 7.0 0.00 0.01 0.01 53 1004.6
20260504193513 67 205 4.0 7.0 0.00 0.01 0.01 50 1004.8
20260504193031 68 235 5.0 7.0 0.00 0.01 0.01 50 1004.7
20260504192511 68 215 4.0 8.0 0.00 0.01 0.01 51 1004.9
20260504192012 68 223 3.0 8.0 0.00 0.01 0.01 51 1005.0
20260504191530 67 240 4.0 7.0 0.00 0.01 0.01 52 1005.0
20260504191012 67 198 4.0 7.0 0.00 0.01 0.01 51 1005.0
20260504190512 66 226 4.0 9.0 0.00 0.01 0.01 50 1005.0
20260504190035 66 228 5.0 9.0 0.00 0.01 0.01 51 1005.1
20260504185508 66 236 5.0 8.0 0.00 0.01 0.01 52 1005.3
20260504185012 66 225 4.0 7.0 0.00 0.01 0.01 52 1005.4
20260504184532 66 238 5.0 8.0 0.00 0.01 0.01 51 1005.5
20260504184017 66 214 4.0 8.0 0.00 0.01 0.01 53 1005.7
20260504183512 65 199 4.0 6.0 0.00 0.01 0.01 55 1005.7
20260504183032 65 211 3.0 6.0 0.00 0.01 0.01 53 1005.9
20260504182512 65 206 3.0 7.0 0.00 0.01 0.01 55 1005.9
20260504182013 64 232 3.0 7.0 0.00 0.01 0.01 56 1006.1
20260504181529 64 200 3.0 6.0 0.00 0.01 0.01 56 1006.1
20260504181010 64 260 4.0 7.0 0.00 0.01 0.01 55 1006.1
20260504180509 64 243 4.0 7.0 0.00 0.01 0.01 56 1006.2
20260504180031 63 210 3.0 7.0 0.00 0.01 0.01 56 1006.1
20260504175512 63 234 2.0 7.0 0.00 0.01 0.01 56 1006.2
20260504175011 63 234 3.0 8.0 0.00 0.01 0.01 57 1006.4
20260504174530 62 215 3.0 8.0 0.00 0.01 0.01 60 1006.5
20260504174012 62 247 4.0 8.0 0.00 0.01 0.01 58 1006.4
20260504173512 62 234 4.0 8.0 0.00 0.01 0.01 59 1006.5
20260504173030 61 259 3.0 8.0 0.00 0.01 0.01 62 1006.6
20260504172511 61 225 5.0 8.0 0.00 0.01 0.01 62 1006.9
20260504172015 60 205 4.0 8.0 0.00 0.01 0.01 62 1006.8
20260504171540 60 255 3.0 5.0 0.00 0.01 0.01 67 1006.7
20260504171013 59 219 2.0 7.0 0.00 0.01 0.01 68 1006.8
20260504170515 58 261 4.0 7.0 0.00 0.01 0.01 67 1006.8
20260504151012 49 189 0.0 2.0 0.00 0.01 0.01 82 1007.9
20260504150512 48 188 0.0 1.0 0.00 0.01 0.01 81 1008.0
20260504141012 49 233 6.0 9.0 0.00 0.01 0.01 75 1007.6
20260504140517 49 212 4.0 9.0 0.00 0.01 0.01 76 1007.6
20260504130511 49 134 0.0 6.0 0.00 0.01 0.01 75 1007.2